Torna al catalogo

COSMOS 944

AttivoMilitareLEO
NORAD 10290·PAYLOAD·🇷🇺 Russia

Lanciato Aug 24, 1977 da Plesetsk Cosmodrome

Loading…

Prossimi Passaggi (prossime 24 ore)

TLE

AggiornatoSource: Space-Track

Epoca: Sep 14, 2026, 08:33 UTC

1 10290U 77079F   26257.35675066 -.00000021  00000-0 -30852-4 0  9999
2 10290  74.0235 217.8669 0005271  28.8653 138.0496 12.49708596214527

Traccia COSMOS 944 in tempo reale con AllMySat

Download on the App Store